Location: Driftwood Observatory
(30.0611°N, 98.0028°W)
Time: 16:15:46
(UTC-05:00)

N. Korean satellite - Visible Passes

Search period start: 24 March 2019 00:00
Search period end: 03 April 2019 00:00
Orbit: 456 x 510 km, 97.2° (Epoch: 23 March)

Date Brightness Start Highest point End Pass type
(mag) Time Alt. Az. Time Alt. Az. Time Alt. Az.
24 Mar 9.9 06:47:05 10° ENE 06:49:21 16° E 06:51:37 10° SE visible
28 Mar 10.0 06:41:35 10° ENE 06:43:26 13° E 06:45:18 10° SE visible
01 Apr 10.2 06:36:16 10° ENE 06:37:30 11° E 06:38:43 10° ESE visible
